This is the latest recevied weather packets stored in our database for station/object KK7ISX. If no packets are shown the sender has not sent any weather packets the latest 10 day(s).
| Time | Temp. | Humidity | Pressure | Rain* | Wind** | Luminosity | Snow |
|---|---|---|---|---|---|---|---|
| 1777508308 | 19.44° C | 34% | 1018.6 hPa | 0 mm | - | 226 W/m² | - |
| 1777508004 | 20° C | 33% | 1018.7 hPa | 0 mm | - | 237 W/m² | - |
| 1777507701 | 19.44° C | 33% | 1018.6 hPa | 0 mm | - | 250 W/m² | - |
| 1777507398 | 19.44° C | 34% | 1018.7 hPa | 0 mm | - | 261 W/m² | - |
| 1777507095 | 20° C | 33% | 1018.7 hPa | 0 mm | - | 274 W/m² | - |
| 1777506793 | 19.44° C | 34% | 1018.7 hPa | 0 mm | - | 290 W/m² | - |
| 1777506490 | 19.44° C | 34% | 1018.5 hPa | 0 mm | - | 308 W/m² | - |
| 1777506190 | 19.44° C | 33% | 1018.7 hPa | 0 mm | - | 325 W/m² | - |
| 1777505886 | 19.44° C | 33% | 1018.7 hPa | 0 mm | - | 343 W/m² | - |
| 1777505582 | 19.44° C | 34% | 1018.8 hPa | 0 mm | - | 355 W/m² | - |
| 1777505280 | 19.44° C | 37% | 1018.8 hPa | 0 mm | - | 364 W/m² | - |
| 1777504976 | 19.44° C | 36% | 1018.9 hPa | 0 mm | - | 375 W/m² | - |
| 1777504673 | 19.44° C | 36% | 1018.9 hPa | 0 mm | - | 388 W/m² | - |
| 1777504371 | 18.89° C | 37% | 1018.9 hPa | 0 mm | - | 402 W/m² | - |
| 1777504069 | 18.89° C | 36% | 1019 hPa | 0 mm | - | 424 W/m² | - |
| 1777503767 | 18.89° C | 36% | 1019 hPa | 0 mm | - | 448 W/m² | - |
| 1777503463 | 18.89° C | 36% | 1019.1 hPa | 0 mm | - | 494 W/m² | - |
| 1777503159 | 19.44° C | 36% | 1018.9 hPa | 0 mm | - | 432 W/m² | - |
| 1777502857 | 20° C | 36% | 1019.1 hPa | 0 mm | - | 481 W/m² | - |
| 1777502554 | 19.44° C | 37% | 1019 hPa | 0 mm | - | 493 W/m² | - |
| 1777502251 | 19.44° C | 36% | 1019.4 hPa | 0 mm | - | 512 W/m² | - |
| 1777501948 | 19.44° C | 36% | 1019.1 hPa | 0 mm | - | 179 W/m² | - |
| 1777501645 | 19.44° C | 35% | 1019.1 hPa | 0 mm | - | 606 W/m² | - |
| 1777501342 | 18.89° C | 35% | 1019.4 hPa | 0 mm | - | 598 W/m² | - |
| 1777501040 | 18.89° C | 35% | 1019.5 hPa | 0 mm | - | 188 W/m² | - |
* Rain latest hour (hover to see other rain measurements)
** Current wind speed in m/s (hover to see current wind gust speed)